Willmar, MN

4:58 AM CDT on March 29, 2017 (GMT -0500)
Willmar

Weather History for KBDH - July, 2013

Change the Weather History Date:

Sunday, July 28, 2013

  Actual Average (KBBB) Record (KBBB)
Temperature  
Mean Temperature 62 °F -  
Max Temperature 75 °F 82 °F 100 °F (1955)
Min Temperature 48 °F 59 °F 35 °F (2000)
Degree Days  
Heating Degree Days 4    
Growing Degree Days 12 (Base 50)    
Moisture  
Dew Point 45 °F    
Average Humidity 56    
Maximum Humidity 82    
Minimum Humidity 31    
Precipitation  
Precipitation 0.00 in - - ()
Sea Level Pressure  
Sea Level Pressure 30.04 in    
Wind  
Wind Speed 7 mph (North)    
Max Wind Speed 14 mph    
Max Gust Speed 18 mph    
Visibility 10 miles    
Events      
Averages and records for this station are not official NWS values.
T = Trace of Precipitation, MM = Missing Value Source: NWS Daily Summary

Daily Weather History Graph

Daily Weather History Graph

Search for Another Location

Airport or City:

Trip Planner

Search our weather history database for the weather conditions in past years. The results will help you decide how hot, cold, wet, or windy it might be!

Date:

Astronomy

Jul. 28, 2013 Rise Set
Actual Time 6:01 AM CDT 8:51 PM CDT
Civil Twilight 5:26 AM CDT 9:26 PM CDT
Nautical Twilight 4:43 AM CDT 10:09 PM CDT
Astronomical Twilight 3:51 AM CDT 11:00 PM CDT
Moon 11:51 PM CDT (7/28) 1:06 PM CDT (7/28)
Length of Visible Light 15h 59m
Length of Day
14h 50m
Waning Gibbous, 60% of the Moon is Illuminated
Jul 28
Waning Gibbous
Jul 29
Last Quarter
Aug 6
New
Aug 14
First Quarter
Aug 20
Full

Hourly Weather History & Observations

Time (CDT) Temp. Dew Point Humidity Pressure Visibility Wind Dir Wind Speed Gust Speed Precip Events Conditions
12:15 AM 55.4 °F 44.6 °F 67% 30.04 in 10.0 mi North 6.9 mph - N/A   Scattered Clouds
12:36 AM 55.4 °F 44.6 °F 67% 30.04 in 10.0 mi North 10.4 mph - N/A   Clear
12:55 AM 57.2 °F 42.8 °F 59% 30.03 in 10.0 mi North 9.2 mph - N/A   Clear
1:15 AM 57.2 °F 42.8 °F 59% 30.03 in 10.0 mi North 6.9 mph - N/A   Clear
1:36 AM 55.4 °F 42.8 °F 63% 30.03 in 10.0 mi NNW 6.9 mph - N/A   Clear
1:55 AM 53.6 °F 42.8 °F 67% 30.03 in 10.0 mi North 5.8 mph - N/A   Clear
2:15 AM 53.6 °F 44.6 °F 72% 30.04 in 10.0 mi NNW 4.6 mph - N/A   Clear
2:36 AM 51.8 °F 44.6 °F 76% 30.03 in 10.0 mi WNW 3.5 mph - N/A   Clear
2:55 AM 51.8 °F 44.6 °F 76% 30.03 in 10.0 mi NW 5.8 mph - N/A   Clear
3:15 AM 51.8 °F 42.8 °F 71% 30.03 in 10.0 mi NW 5.8 mph - N/A   Clear
3:36 AM 51.8 °F 44.6 °F 76% 30.03 in 10.0 mi WNW 4.6 mph - N/A   Clear
3:55 AM 51.8 °F 44.6 °F 76% 30.03 in 10.0 mi WNW 8.1 mph - N/A   Clear
4:15 AM 51.8 °F 42.8 °F 71% 30.03 in 10.0 mi WNW 5.8 mph - N/A   Clear
4:36 AM 48.2 °F 42.8 °F 82% 30.03 in 10.0 mi NW 6.9 mph - N/A   Clear
4:55 AM 48.2 °F 42.8 °F 82% 30.03 in 10.0 mi North 8.1 mph - N/A   Clear
5:15 AM 50.0 °F 44.6 °F 82% 30.03 in 10.0 mi NNW 5.8 mph - N/A   Clear
5:36 AM 50.0 °F 44.6 °F 82% 30.03 in 10.0 mi North 5.8 mph - N/A   Clear
5:55 AM 50.0 °F 44.6 °F 82% 30.03 in 10.0 mi NW 5.8 mph - N/A   Clear
6:15 AM 50.0 °F 42.8 °F 76% 30.04 in 10.0 mi NW 5.8 mph - N/A   Clear
6:36 AM 50.0 °F 44.6 °F 82% 30.05 in 10.0 mi WNW 4.6 mph - N/A   Clear
6:55 AM 50.0 °F 44.6 °F 82% 30.05 in 10.0 mi Calm Calm - N/A   Clear
7:15 AM 51.8 °F 44.6 °F 76% 30.05 in 10.0 mi Calm Calm - N/A   Clear
7:36 AM 53.6 °F 46.4 °F 77% 30.05 in 10.0 mi NNW 4.6 mph - N/A   Clear
7:55 AM 55.4 °F 46.4 °F 72% 30.05 in 10.0 mi NNW 6.9 mph - N/A   Clear
8:15 AM 57.2 °F 46.4 °F 67% 30.05 in 10.0 mi North 6.9 mph - N/A   Clear
8:36 AM 59.0 °F 44.6 °F 59% 30.05 in 10.0 mi NNE 12.7 mph - N/A   Clear
8:55 AM 60.8 °F 42.8 °F 52% 30.05 in 10.0 mi North 11.5 mph - N/A   Clear
9:15 AM 60.8 °F 44.6 °F 55% 30.05 in 10.0 mi NNE 10.4 mph - N/A   Clear
9:36 AM 62.6 °F 42.8 °F 48% 30.05 in 10.0 mi North 13.8 mph - N/A   Clear
9:55 AM 62.6 °F 42.8 °F 48% 30.05 in 10.0 mi North 10.4 mph - N/A   Clear
10:15 AM 64.4 °F 42.8 °F 45% 30.05 in 10.0 mi NNE 11.5 mph - N/A   Clear
10:36 AM 64.4 °F 42.8 °F 45% 30.05 in 10.0 mi North 10.4 mph 18.4 mph N/A   Clear
10:55 AM 66.2 °F 44.6 °F 46% 30.05 in 10.0 mi NW 6.9 mph 16.1 mph N/A   Clear
11:15 AM 66.2 °F 44.6 °F 46% 30.05 in 10.0 mi North 11.5 mph - N/A   Clear
11:35 AM 66.2 °F 44.6 °F 46% 30.05 in 10.0 mi NW 9.2 mph - N/A   Clear
11:55 AM 68.0 °F 44.6 °F 43% 30.05 in 10.0 mi NNW 10.4 mph 17.3 mph N/A   Clear
12:15 PM 69.8 °F 44.6 °F 40% 30.05 in 10.0 mi North 8.1 mph 17.3 mph N/A   Clear
12:35 PM 69.8 °F 44.6 °F 40% 30.05 in 10.0 mi North 12.7 mph 18.4 mph N/A   Clear
12:55 PM 71.6 °F 44.6 °F 38% 30.05 in 10.0 mi NNE 10.4 mph - N/A   Clear
1:15 PM 71.6 °F 44.6 °F 38% 30.04 in 10.0 mi NW 9.2 mph - N/A   Clear
1:35 PM 71.6 °F 44.6 °F 38% 30.04 in 10.0 mi North 10.4 mph 18.4 mph N/A   Clear
1:55 PM 73.4 °F 44.6 °F 36% 30.04 in 10.0 mi North 13.8 mph - N/A   Clear
2:15 PM 73.4 °F 44.6 °F 36% 30.04 in 10.0 mi NNW 6.9 mph 17.3 mph N/A   Clear
2:35 PM 73.4 °F 42.8 °F 33% 30.04 in 10.0 mi North 6.9 mph 16.1 mph N/A   Clear
2:55 PM 73.4 °F 42.8 °F 33% 30.03 in 10.0 mi NNW 6.9 mph 17.3 mph N/A   Clear
3:15 PM 75.2 °F 44.6 °F 34% 30.03 in 10.0 mi NW 10.4 mph - N/A   Clear
3:35 PM 75.2 °F 42.8 °F 31% 30.03 in 10.0 mi North 6.9 mph 10.4 mph N/A   Clear
3:55 PM 75.2 °F 44.6 °F 34% 30.03 in 10.0 mi North 8.1 mph - N/A   Clear
4:15 PM 75.2 °F 42.8 °F 31% 30.03 in 10.0 mi North 10.4 mph 16.1 mph N/A   Clear
4:35 PM 73.4 °F 42.8 °F 33% 30.03 in 10.0 mi NNE 9.2 mph - N/A   Clear
4:55 PM 75.2 °F 44.6 °F 34% 30.03 in 10.0 mi North 11.5 mph - N/A   Clear
5:15 PM 75.2 °F 44.6 °F 34% 30.03 in 10.0 mi NNE 8.1 mph - N/A   Clear
5:35 PM 73.4 °F 44.6 °F 36% 30.03 in 10.0 mi NNE 8.1 mph - N/A   Clear
5:55 PM 73.4 °F 44.6 °F 36% 30.03 in 10.0 mi North 5.8 mph - N/A   Clear
6:15 PM 73.4 °F 44.6 °F 36% 30.03 in 10.0 mi North 6.9 mph - N/A   Clear
6:35 PM 73.4 °F 44.6 °F 36% 30.03 in 10.0 mi NNE 9.2 mph - N/A   Clear
6:55 PM 73.4 °F 44.6 °F 36% 30.03 in 10.0 mi NE 4.6 mph - N/A   Clear
7:15 PM 73.4 °F 46.4 °F 38% 30.04 in 10.0 mi NNE 6.9 mph - N/A   Clear
7:35 PM 73.4 °F 46.4 °F 38% 30.04 in 10.0 mi North 4.6 mph - N/A   Clear
7:55 PM 71.6 °F 48.2 °F 43% 30.04 in 10.0 mi Calm Calm - N/A   Clear
8:15 PM 69.8 °F 51.8 °F 53% 30.05 in 10.0 mi Calm Calm - N/A   Clear
8:35 PM 66.2 °F 51.8 °F 60% 30.05 in 10.0 mi East 3.5 mph - N/A   Clear
8:55 PM 66.2 °F 51.8 °F 60% 30.05 in 10.0 mi East 3.5 mph - N/A   Clear
9:15 PM 64.4 °F 51.8 °F 64% 30.06 in 10.0 mi East 3.5 mph - N/A   Clear
9:35 PM 62.6 °F 51.8 °F 68% 30.06 in 10.0 mi Calm Calm - N/A   Clear
9:55 PM 62.6 °F 51.8 °F 68% 30.07 in 10.0 mi Calm Calm - N/A   Clear
10:15 PM 60.8 °F 51.8 °F 72% 30.08 in 10.0 mi Calm Calm - N/A   Clear
10:35 PM 60.8 °F 51.8 °F 72% 30.08 in 10.0 mi Calm Calm - N/A   Clear
10:55 PM 60.8 °F 51.8 °F 72% 30.09 in 10.0 mi Calm Calm - N/A   Clear
11:16 PM 59.0 °F 51.8 °F 77% 30.09 in 7.0 mi Calm Calm - N/A   Clear
11:35 PM 57.2 °F 51.8 °F 82% 30.09 in 10.0 mi Calm Calm - N/A   Clear
11:55 PM 57.2 °F 50.0 °F 77% 30.08 in 10.0 mi Calm Calm - N/A   Clear